Location: Shenandoah County Park
(38.9356°N, 78.4524°W)
Time: 13:56:18
(UTC-05:00)

Vanguard 2 Rocket - Pass Details

Date: 05 December 2023
Orbit: 555 x 3309 km, 32.9° (Epoch: 03 March)

Event Time Altitude Azimuth Distance (km) Brightness Sun altitude
Rises 16:45:29 0° 262° (W) 6,742 12.9 0.2°
Reaches altitude 10° 16:49:38 10° 261° (W) 5,940 12.6 -0.5°
Maximum altitude 17:09:24 73° 182° (S) 3,368 9.9 -3.9°
Drops below altitude 10° 17:26:59 10° 102° (ESE) 5,369 10.3 -7.0°
Sets 17:30:31 0° 100° (E) 6,096 10.6 -7.7°
